StationID,Date,MaxTemp,MinTemp,Precipitation,Snowfall,SnowDepth
"CA001100031","2012-06-21",73.94,53.96,0.00,0.00,
"CA001100031","2012-06-22",64.40,52.16,134.00,0.00,
"CA001100031","2012-06-23",67.10,51.62,238.00,0.00,
"CA001100031","2012-06-24",64.76,45.32,0.00,0.00,
"CA001100031","2012-06-25",68.90,45.50,0.00,0.00,
"CA001100031","2012-06-26",58.28,50.90,8.00,0.00,
"CA001100031","2012-06-27",69.80,49.82,0.00,0.00,
"CA001100031","2012-06-28",74.48,52.88,16.00,0.00,
"CA001100031","2012-06-29",71.60,57.74,14.00,0.00,
"CA001100031","2012-06-30",74.48,42.62,176.00,0.00,
"CA001100031","2012-07-01",64.76,54.68,4.00,0.00,
"CA001100031","2012-07-02",58.82,53.60,36.00,0.00,
"CA001100031","2012-07-03",62.96,51.08,160.00,0.00,
"CA001100031","2012-07-04",68.00,47.48,0.00,0.00,
"CA001100031","2012-07-05",73.22,47.48,0.00,0.00,
"CA001100031","2012-07-06",77.72,50.72,0.00,0.00,
"CA001100031","2012-07-07",79.16,52.34,0.00,0.00,
"CA001100031","2012-07-08",81.86,55.22,0.00,0.00,
"CA001100031","2012-07-09",73.94,57.56,24.00,0.00,
"CA001100031","2012-07-10",73.04,51.08,0.00,0.00,
"CA001100031","2012-07-11",78.62,53.42,0.00,0.00,
"CA001100031","2012-07-12",78.62,53.78,0.00,0.00,
"CA001100031","2012-07-13",73.22,56.48,0.00,0.00,
"CA001100031","2012-07-14",78.26,56.84,0.00,0.00,
"CA001100031","2012-07-15",66.20,58.64,15.00,0.00,
"CA001100031","2012-07-16",78.44,58.10,0.00,0.00,
"CA001100031","2012-07-17",80.60,58.28,0.00,0.00,
"CA001100031","2012-07-18",67.82,58.46,0.00,0.00,
"CA001100031","2012-07-19",79.34,59.18,0.00,0.00,
"CA001100031","2012-07-20",66.02,59.72,140.00,0.00,
"CA001100031","2012-07-21",73.04,59.90,4.00,0.00,
"CA001100031","2012-07-22",64.40,53.96,22.00,0.00,
"CA001100031","2012-07-23",60.26,52.16,122.00,0.00,
"CA001100031","2012-07-24",71.42,55.58,0.00,0.00,
"CA001100031","2012-07-25",77.90,53.06,0.00,0.00,
"CA001100031","2012-07-26",78.26,56.48,0.00,0.00,
"CA001100031","2012-07-27",69.44,54.86,0.00,0.00,
"CA001100031","2012-07-28",72.14,56.48,0.00,0.00,
"CA001100031","2012-07-29",73.40,52.16,,,
"CA001100031","2012-07-30",70.70,52.52,0.00,0.00,
"CA001100031","2012-07-31",81.86,47.48,0.00,0.00,
"CA001100031","2012-08-01",72.68,51.62,0.00,0.00,
"CA001100031","2012-08-02",72.86,55.76,0.00,0.00,
"CA001100031","2012-08-03",83.12,52.52,0.00,0.00,
"CA001100031","2012-08-04",89.24,57.92,0.00,0.00,
"CA001100031","2012-08-05",89.78,62.06,0.00,0.00,
"CA001100031","2012-08-06",77.54,61.52,6.00,0.00,
"CA001100031","2012-08-07",73.76,58.28,14.00,0.00,
"CA001100031","2012-08-08",70.34,58.10,0.00,0.00,
"CA001100031","2012-08-09",75.38,51.98,0.00,0.00,
"CA001100031","2012-08-10",76.82,51.44,0.00,0.00,
"CA001100031","2012-08-11",81.32,51.62,0.00,0.00,
"CA001100031","2012-08-12",86.18,56.30,0.00,0.00,
"CA001100031","2012-08-13",78.08,55.76,0.00,0.00,
"CA001100031","2012-08-14",78.62,54.86,0.00,0.00,
"CA001100031","2012-08-15",91.76,61.70,0.00,0.00,
"CA001100031","2012-08-16",91.40,57.74,0.00,0.00,
"CA001100031","2012-08-17",91.94,59.18,0.00,0.00,
"CA001100031","2012-08-18",74.30,56.48,0.00,0.00,
"CA001100031","2012-08-19",68.00,57.56,0.00,0.00,
"CA001100031","2012-08-20",76.10,59.54,0.00,0.00,
"CA001100031","2012-08-21",69.62,53.42,0.00,0.00,
"CA001100031","2012-08-22",70.70,55.04,0.00,0.00,
"CA001100031","2012-08-23",68.00,53.78,18.00,0.00,
"CA001100031","2012-08-24",68.00,49.46,0.00,0.00,
"CA001100031","2012-08-25",81.32,50.00,0.00,0.00,
"CA001100031","2012-08-26",72.32,49.64,0.00,0.00,
"CA001100031","2012-08-27",73.04,55.76,0.00,0.00,
"CA001100031","2012-08-28",67.64,52.34,0.00,0.00,
"CA001100031","2012-08-29",69.98,55.40,,0.00,
"CA001100031","2012-08-30",71.96,51.98,0.00,0.00,
"CA001100031","2012-08-31",71.60,47.66,0.00,0.00,
"CA001100031","2012-09-01",70.88,45.32,0.00,0.00,
"CA001100031","2012-09-02",70.16,48.02,0.00,0.00,
"CA001100031","2012-09-03",71.60,45.50,0.00,0.00,
"CA001100031","2012-09-04",74.84,48.92,0.00,0.00,
"CA001100031","2012-09-05",75.02,50.00,0.00,0.00,
"CA001100031","2012-09-06",84.92,55.58,0.00,0.00,
"CA001100031","2012-09-07",86.90,51.08,0.00,0.00,
"CA001100031","2012-09-08",87.26,52.88,0.00,0.00,
"CA001100031","2012-09-09",66.38,57.38,40.00,0.00,
"CA001100031","2012-09-10",64.22,46.76,26.00,0.00,
"CA001100031","2012-09-11",64.76,45.14,0.00,0.00,
"CA001100031","2012-09-12",73.58,42.62,0.00,0.00,
"CA001100031","2012-09-13",80.42,44.78,0.00,0.00,
"CA001100031","2012-09-14",77.54,46.04,0.00,0.00,
"CA001100031","2012-09-15",75.20,47.66,0.00,0.00,
"CA001100031","2012-09-16",79.70,46.22,0.00,0.00,
"CA001100031","2012-09-17",82.04,46.04,0.00,0.00,
"CA001100031","2012-09-18",80.06,48.74,0.00,0.00,
"CA001100031","2012-09-19",77.90,46.58,0.00,0.00,
"CA001100031","2012-09-20",80.06,44.60,0.00,0.00,
"CA001100031","2012-09-21",60.26,50.90,0.00,0.00,
"CA001100031","2012-09-22",61.88,54.68,0.00,0.00,
"CA001100031","2012-09-23",68.90,51.44,0.00,0.00,
"CA001100031","2012-09-24",68.54,43.70,0.00,0.00,
"CA001100031","2012-09-25",68.00,49.82,0.00,0.00,
"CA001100031","2012-09-26",68.00,41.00,0.00,0.00,
"CA001100031","2012-09-27",74.30,45.50,0.00,0.00,
"CA001100031","2012-09-28",71.06,53.60,0.00,0.00,
"CA001100031","2012-09-29",65.48,47.48,0.00,0.00,
"CA001100031","2012-09-30",67.28,39.20,0.00,0.00,
"CA001100031","2012-10-01",69.62,42.80,0.00,0.00,
"CA001100031","2012-10-02",60.44,48.02,0.00,0.00,
"CA001100031","2012-10-03",67.10,44.60,0.00,0.00,
"CA001100031","2012-10-04",70.16,38.84,0.00,0.00,
"CA001100031","2012-10-05",71.78,43.52,0.00,0.00,
"CA001100031","2012-10-06",74.30,41.72,0.00,0.00,
"CA001100031","2012-10-07",74.48,41.36,0.00,0.00,
"CA001100031","2012-10-08",71.06,41.72,0.00,0.00,
"CA001100031","2012-10-09",59.00,42.98,0.00,0.00,
"CA001100031","2012-10-11",58.82,46.04,2.00,0.00,
"CA001100031","2012-10-12",53.60,47.66,146.00,0.00,
"CA001100031","2012-10-13",62.06,52.52,255.00,0.00,
"CA001100031","2012-10-14",64.04,56.30,284.00,0.00,
"CA001100031","2012-10-15",58.82,49.28,170.00,0.00,
"CA001100031","2012-10-16",59.18,46.76,2.00,0.00,
"CA001100031","2012-10-17",55.58,44.42,0.00,0.00,
"CA001100031","2012-10-18",52.88,48.56,350.00,0.00,
"CA001100031","2012-10-19",58.46,44.60,78.00,0.00,
"CA001100031","2012-10-20",50.54,38.12,104.00,0.00,
"CA001100031","2012-10-21",48.56,37.40,133.00,0.00,
"CA001100031","2012-10-22",51.44,37.04,16.00,0.00,
"CA001100031","2012-10-24",47.12,39.02,2.00,0.00,
"CA001100031","2012-10-25",51.26,35.78,0.00,0.00,
"CA001100031","2012-10-26",45.86,42.08,55.00,0.00,
"CA001100031","2012-10-27",48.38,43.16,300.00,0.00,
"CA001100031","2012-10-28",57.74,43.88,89.00,0.00,
"CA001100031","2012-10-30",55.22,51.26,230.00,0.00,
"CA001100031","2012-10-31",55.94,47.48,402.00,0.00,
"CA001100031","2012-11-01",53.78,47.12,30.00,0.00,
"CA001100031","2012-11-02",57.56,48.02,19.00,0.00,
"CA001100031","2012-11-03",56.84,51.08,180.00,0.00,
"CA001100031","2012-11-04",61.88,51.08,100.00,0.00,
"CA001100031","2012-11-06",51.98,45.50,82.00,0.00,
"CA001100031","2012-11-07",52.34,39.38,0.00,0.00,
"CA001100031","2012-11-08",51.80,35.06,0.00,0.00,
"CA001100031","2012-11-09",46.58,34.34,0.00,0.00,
"CA001100031","2012-11-11",40.46,26.78,112.00,0.00,
"CA001100031","2012-11-12",44.78,36.14,180.00,0.00,
"CA001100031","2012-11-13",47.48,39.74,146.00,0.00,
"CA001100031","2012-11-14",49.46,36.14,11.00,0.00,
"CA001100031","2012-11-15",49.82,33.62,0.00,0.00,
"CA001100031","2012-11-16",46.22,34.16,6.00,0.00,
"CA001100031","2012-11-17",49.64,41.00,178.00,0.00,
"CA001100031","2012-11-18",50.72,41.72,24.00,0.00,
"CA001100031","2012-11-21",45.50,36.68,94.00,0.00,
"CA001100031","2012-11-22",44.06,35.24,0.00,0.00,
"CA001100031","2012-11-23",45.68,40.64,197.00,0.00,
"CA001100031","2012-11-24",50.00,31.28,2.00,0.00,
"CA001100031","2012-11-25",45.86,33.08,0.00,0.00,
"CA001100031","2012-11-26",45.32,32.54,0.00,0.00,
"CA001100031","2012-11-27",45.32,32.72,0.00,0.00,
"CA001100031","2012-11-28",46.76,33.98,26.00,0.00,
"CA001100031","2012-11-29",53.42,41.90,17.00,0.00,
"CA001100031","2012-11-30",51.44,44.06,198.00,0.00,
"CA001100031","2012-12-02",48.02,41.72,194.00,0.00,
"CA001100031","2012-12-03",48.74,42.62,37.00,0.00,
"CA001100031","2012-12-04",52.34,41.90,162.00,0.00,
"CA001100031","2012-12-05",44.60,37.94,16.00,0.00,
"CA001100031","2012-12-06",41.54,37.40,175.00,0.00,
"CA001100031","2012-12-07",43.16,33.80,90.00,0.00,
"CA001100031","2012-12-08",38.48,31.46,0.00,0.00,
"CA001100031","2012-12-09",36.50,33.08,30.00,0.00,
"CA001100031","2012-12-11",43.52,36.50,153.00,0.00,
"CA001100031","2012-12-12",43.52,38.48,20.00,0.00,
"CA001100031","2012-12-13",41.90,36.50,79.00,0.00,
"CA001100031","2012-12-14",40.10,31.82,75.00,0.00,
"CA001100031","2012-12-16",40.64,35.24,130.00,0.00,
"CA001100031","2012-12-21",37.94,30.56,22.00,0.00,
"CA001100031","2012-12-22",39.74,32.90,58.00,0.00,
"CA001100031","2012-12-24",35.78,30.20,12.00,0.00,
"CA001100031","2012-12-25",37.76,30.74,42.00,12.00,10.00
"CA001100031","2012-12-26",38.84,34.34,46.00,0.00,
"CA001100031","2012-12-27",37.04,33.44,24.00,0.00,
"CA001100031","2012-12-29",39.38,31.64,34.00,0.00,
"CA001100031","2012-12-30",37.94,26.96,0.00,0.00,
"CA001100031","2012-12-31",34.34,25.88,14.00,35.00,10.00
"CA001100031","2013-01-01",36.50,22.10,0.00,0.00,
"CA001100031","2013-01-02",41.36,27.14,0.00,0.00,
"CA001100031","2013-01-03",40.28,23.54,16.00,0.00,
"CA001100031","2013-01-04",37.04,32.72,99.00,0.00,
"CA001100031","2013-01-05",40.28,33.80,63.00,0.00,
"CA001100031","2013-01-06",43.16,36.14,102.00,0.00,
"CA001100031","2013-01-07",48.74,36.14,269.00,0.00,
"CA001100031","2013-01-08",42.08,35.96,420.00,0.00,
"CA001100031","2013-01-09",49.28,35.60,96.00,0.00,
"CA001100031","2013-01-11",37.04,24.26,0.00,0.00,
"CA001100031","2013-01-12",33.62,20.30,0.00,0.00,
"CA001100031","2013-01-13",31.82,18.14,0.00,0.00,
"CA001100031","2013-01-15",36.32,28.58,0.00,0.00,0.00
"CA001100031","2013-01-16",39.92,23.54,0.00,0.00,
"CA001100031","2013-01-17",42.44,24.98,0.00,0.00,
"CA001100031","2013-01-20",47.66,25.88,0.00,0.00,
"CA001100031","2013-01-21",44.42,21.02,0.00,0.00,
"CA001100031","2013-01-22",40.28,21.92,0.00,0.00,
"CA001100031","2013-01-24",43.70,33.44,57.00,0.00,
"CA001100031","2013-01-25",46.94,35.78,52.00,0.00,
"CA001100031","2013-01-27",40.10,35.60,26.00,0.00,
"CA001100031","2013-01-28",39.74,36.68,38.00,0.00,
"CA001100031","2013-01-29",43.52,38.12,48.00,0.00,
"CA001100031","2013-01-30",45.32,42.44,25.00,0.00,
"CA001100031","2013-01-31",47.12,41.90,46.00,0.00,
"CA001100031","2013-02-01",47.84,39.02,4.00,0.00,
"CA001100031","2013-02-03",42.98,37.40,38.00,0.00,
"CA001100031","2013-02-04",47.66,40.64,8.00,0.00,
"CA001100031","2013-02-05",49.28,40.28,34.00,0.00,
"CA001100031","2013-02-06",48.92,40.64,78.00,0.00,
"CA001100031","2013-02-07",47.12,32.00,11.00,0.00,
"CA001100031","2013-02-08",42.80,29.66,0.00,0.00,
"CA001100031","2013-02-09",43.52,36.86,0.00,0.00,
"CA001100031","2013-02-10",46.04,28.04,0.00,0.00,
"CA001100031","2013-02-12",48.02,39.92,18.00,0.00,
"CA001100031","2013-02-13",49.10,40.10,0.00,0.00,
"CA001100031","2013-02-14",44.24,38.66,34.00,0.00,
"CA001100031","2013-02-15",53.24,37.40,0.00,0.00,
"CA001100031","2013-02-16",51.44,39.38,52.00,0.00,
"CA001100031","2013-02-17",45.68,34.70,0.00,0.00,
"CA001100031","2013-02-18",42.80,34.34,2.00,0.00,
"CA001100031","2013-02-19",49.10,30.92,0.00,0.00,
"CA001100031","2013-02-20",38.30,27.86,30.00,0.00,
"CA001100031","2013-02-21",42.44,33.98,67.00,0.00,
"CA001100031","2013-02-22",46.22,37.76,185.00,0.00,
"CA001100031","2013-02-23",48.02,36.50,0.00,0.00,
"CA001100031","2013-02-24",46.40,38.30,19.00,0.00,
"CA001100031","2013-02-25",44.06,39.02,132.00,0.00,
"CA001100031","2013-02-26",47.12,32.54,30.00,0.00,
"CA001100031","2013-02-27",46.94,32.72,38.00,0.00,
"CA001100031","2013-02-28",41.54,36.68,248.00,0.00,
"CA001100031","2013-03-01",54.86,40.10,464.00,0.00,
"CA001100031","2013-03-02",53.78,39.92,112.00,0.00,
"CA001100031","2013-03-03",48.02,34.34,0.00,0.00,
"CA001100031","2013-03-04",52.34,28.40,0.00,0.00,
"CA001100031","2013-03-05",48.56,38.48,0.00,0.00,
"CA001100031","2013-03-06",45.68,39.56,76.00,0.00,
"CA001100031","2013-03-07",45.68,38.66,44.00,0.00,
"CA001100031","2013-03-08",50.90,32.18,0.00,0.00,
"CA001100031","2013-03-09",53.06,29.30,0.00,0.00,
"CA001100031","2013-03-11",50.36,35.24,23.00,0.00,
"CA001100031","2013-03-12",50.72,38.12,553.00,0.00,
"CA001100031","2013-03-13",54.32,48.92,194.00,0.00,
"CA001100031","2013-03-14",53.96,46.76,125.00,0.00,
"CA001100031","2013-03-15",56.12,45.68,98.00,0.00,
"CA001100031","2013-03-16",47.84,37.76,92.00,0.00,
"CA001100031","2013-03-17",48.74,38.12,12.00,0.00,
"CA001100031","2013-03-18",48.92,36.32,54.00,0.00,
"CA001100031","2013-03-19",48.74,32.54,37.00,0.00,
"CA001100031","2013-03-20",51.08,39.56,243.00,0.00,
"CA001100031","2013-03-21",48.56,31.64,22.00,0.00,
"CA001100031","2013-03-22",44.60,32.00,0.00,0.00,
"CA001100031","2013-03-23",48.92,30.92,0.00,0.00,
"CA001100031","2013-03-24",53.60,32.72,0.00,0.00,
"CA001100031","2013-03-25",59.54,37.40,0.00,0.00,
"CA001100031","2013-03-26",59.90,35.42,0.00,0.00,
"CA001100031","2013-03-27",60.62,35.78,0.00,0.00,
"CA001100031","2013-03-28",61.88,40.46,0.00,0.00,
"CA001100031","2013-03-29",62.60,44.42,0.00,0.00,
"CA001100031","2013-03-30",65.84,39.92,0.00,0.00,
"CA001100031","2013-03-31",69.44,39.56,0.00,0.00,
"CA001100031","2013-04-01",59.54,39.92,0.00,0.00,
"CA001100031","2013-04-02",54.14,46.76,0.00,0.00,
"CA001100031","2013-04-03",61.88,47.48,0.00,0.00,
"CA001100031","2013-04-04",56.48,48.74,162.00,0.00,
"CA001100031","2013-04-05",56.66,47.84,167.00,0.00,
"CA001100031","2013-04-06",55.58,42.44,102.00,0.00,
"CA001100031","2013-04-07",47.84,41.36,135.00,0.00,
"CA001100031","2013-04-08",55.04,42.80,4.00,0.00,
"CA001100031","2013-04-09",51.62,,,,
"CA001100031","2013-04-10",56.84,45.14,172.00,0.00,
"CA001100031","2013-04-11",54.14,40.64,20.00,0.00,
"CA001100031","2013-04-13",46.94,35.96,25.00,0.00,
"CA001100031","2013-04-14",53.24,37.22,0.00,0.00,
"CA001100031","2013-04-15",54.32,39.20,137.00,0.00,
"CA001100031","2013-04-16",59.54,36.68,0.00,0.00,
"CA001100031","2013-04-17",57.38,36.50,0.00,0.00,
"CA001100031","2013-04-18",50.18,43.16,102.00,0.00,
"CA001100031","2013-04-19",55.40,45.14,123.00,0.00,
"CA001100031","2013-04-20",56.12,46.58,24.00,0.00,
"CA001100031","2013-04-21",54.32,39.74,96.00,0.00,
"CA001100031","2013-04-22",61.52,34.16,0.00,0.00,
"CA001100031","2013-04-23",63.68,36.86,0.00,0.00,
"CA001100031","2013-04-24",64.94,36.50,0.00,0.00,
"CA001100031","2013-04-25",64.76,38.30,0.00,0.00,
"CA001100031","2013-04-26",61.70,40.64,0.00,0.00,
"CA001100031","2013-04-27",54.86,48.20,84.00,0.00,
"CA001100031","2013-04-28",55.76,39.38,66.00,0.00,
"CA001100031","2013-04-29",55.22,40.64,14.00,0.00,
"CA001100031","2013-04-30",54.14,38.84,0.00,0.00,
"CA001100031","2013-05-01",60.62,35.60,0.00,0.00,
"CA001100031","2013-05-02",64.40,38.30,0.00,0.00,
"CA001100031","2013-05-03",72.14,42.80,0.00,0.00,
"CA001100031","2013-05-04",80.42,46.22,0.00,0.00,
"CA001100031","2013-05-05",86.18,52.16,0.00,0.00,
"CA001100031","2013-05-06",82.40,51.98,0.00,0.00,
"CA001100031","2013-05-07",70.52,48.02,0.00,0.00,
"CA001100031","2013-05-08",65.84,48.56,0.00,0.00,
"CA001100031","2013-05-09",71.78,46.40,0.00,0.00,
"CA001100031","2013-05-10",76.46,47.30,0.00,0.00,
"CA001100031","2013-05-11",77.18,52.88,0.00,0.00,
"CA001100031","2013-05-12",67.46,55.40,246.00,0.00,
"CA001100031","2013-05-13",64.76,48.20,89.00,0.00,
"CA001100031","2013-05-14",61.16,46.58,0.00,0.00,
"CA001100031","2013-05-15",66.20,48.74,0.00,0.00,
"CA001100031","2013-05-16",66.74,51.62,16.00,0.00,
"CA001100031","2013-05-17",59.90,50.36,10.00,0.00,
"CA001100031","2013-05-18",61.16,50.54,12.00,0.00,
"CA001100031","2013-05-19",62.60,50.54,0.00,0.00,
"CA001100031","2013-05-20",66.56,44.06,0.00,0.00,
"CA001100031","2013-05-21",54.50,47.48,182.00,0.00,
"CA001100031","2013-05-22",58.64,46.76,62.00,0.00,
"CA001100031","2013-05-23",60.44,42.26,20.00,0.00,
"CA001100031","2013-05-24",63.86,42.80,0.00,0.00,
"CA001100031","2013-05-25",60.08,46.58,38.00,0.00,
"CA001100031","2013-05-26",57.02,49.28,126.00,0.00,
"CA001100031","2013-05-27",60.98,49.82,68.00,0.00,
"CA001100031","2013-05-28",60.44,51.44,40.00,0.00,
"CA001100031","2013-05-29",58.64,49.46,9.00,0.00,
"CA001100031","2013-05-30",59.54,48.38,112.00,0.00,
"CA001100031","2013-05-31",64.40,48.74,3.00,0.00,
"CA001100031","2013-06-01",66.56,48.20,0.00,0.00,
"CA001100031","2013-06-02",67.64,49.46,0.00,0.00,
"CA001100031","2013-06-03",70.34,47.84,0.00,0.00,
"CA001100031","2013-06-04",77.00,47.12,0.00,0.00,
"CA001100031","2013-06-05",73.58,53.78,0.00,0.00,
"CA001100031","2013-06-06",76.10,50.72,0.00,0.00,
"CA001100031","2013-06-07",66.56,52.70,20.00,0.00,
"CA001100031","2013-06-08",64.94,48.38,0.00,0.00,
"CA001100031","2013-06-09",67.10,51.26,0.00,0.00,
"CA001100031","2013-06-10",67.64,44.06,0.00,0.00,
"CA001100031","2013-06-11",64.58,53.42,0.00,0.00,
"CA001100031","2013-06-12",59.72,49.10,86.00,0.00,
"CA001100031","2013-06-13",66.92,47.84,0.00,0.00,
"CA001100031","2013-06-14",61.70,52.16,24.00,0.00,
"CA001100031","2013-06-15",76.10,48.74,0.00,0.00,
"CA001100031","2013-06-16",73.58,53.42,0.00,0.00,
"CA001100031","2013-06-17",72.86,53.42,0.00,0.00,
"CA001100031","2013-06-18",69.62,55.04,22.00,0.00,
"CA001100031","2013-06-19",64.76,52.52,60.00,0.00,
"CA001100031","2013-06-20",56.84,52.34,290.00,0.00,
"CA001100031","2013-06-21",65.48,52.88,0.00,0.00,
"CA001100031","2013-06-22",72.14,53.06,0.00,0.00,
"CA001100031","2013-06-23",70.70,55.58,3.00,0.00,
"CA001100031","2013-06-24",64.04,57.20,181.00,0.00,
"CA001100031","2013-06-25",71.60,55.76,87.00,0.00,
"CA001100031","2013-06-26",72.14,56.48,15.00,0.00,
"CA001100031","2013-06-27",68.54,59.00,22.00,0.00,
"CA001100031","2013-06-28",78.62,58.46,0.00,0.00,
"CA001100031","2013-06-29",81.50,60.80,0.00,0.00,
"CA001100031","2013-06-30",91.94,61.88,0.00,0.00,
"CA001100031","2013-07-01",85.10,62.78,0.00,0.00,
"CA001100031","2013-07-02",78.80,58.82,0.00,0.00,
"CA001100031","2013-07-03",75.92,55.04,0.00,0.00,
"CA001100031","2013-07-04",70.70,52.16,0.00,0.00,
"CA001100031","2013-07-05",72.68,52.52,0.00,0.00,
"CA001100031","2013-07-06",77.72,53.06,0.00,0.00,
"CA001100031","2013-07-07",74.84,56.12,0.00,0.00,
"CA001100031","2013-07-08",75.38,54.86,0.00,0.00,
"CA001100031","2013-07-09",83.30,54.86,0.00,0.00,
"CA001100031","2013-07-10",72.86,54.50,0.00,0.00,
"CA001100031","2013-07-11",67.82,51.08,0.00,0.00,
"CA001100031","2013-07-12",70.88,48.38,0.00,0.00,
"CA001100031","2013-07-13",75.02,47.84,0.00,0.00,
"CA001100031","2013-07-14",78.26,50.18,0.00,0.00,
"CA001100031","2013-07-15",83.30,53.96,0.00,0.00,
"CA001100031","2013-07-16",92.30,66.02,0.00,0.00,
"CA001100031","2013-07-17",74.84,60.98,38.00,0.00,
"CA001100031","2013-07-18",76.28,59.36,0.00,0.00,
"CA001100031","2013-07-19",78.80,54.68,0.00,0.00,
"CA001100031","2013-07-20",75.56,54.50,0.00,0.00,
"CA001100031","2013-07-21",75.92,52.16,0.00,0.00,
"CA001100031","2013-07-22",77.36,55.22,0.00,0.00,
"CA001100031","2013-07-23",83.12,53.60,0.00,0.00,
"CA001100031","2013-07-24",83.48,54.14,0.00,0.00,
"CA001100031","2013-07-25",82.04,52.16,0.00,0.00,
"CA001100031","2013-07-26",79.34,53.60,0.00,0.00,
"CA001100031","2013-07-27",76.10,53.24,0.00,0.00,
"CA001100031","2013-07-28",74.30,51.26,0.00,0.00,
"CA001100031","2013-07-29",75.56,55.04,0.00,0.00,
"CA001100031","2013-07-30",75.92,52.88,0.00,0.00,
"CA001100031","2013-07-31",75.38,54.68,0.00,0.00,
"CA001100031","2013-08-01",69.80,54.14,0.00,0.00,
"CA001100031","2013-08-02",63.86,57.20,48.00,0.00,
"CA001100031","2013-08-03",73.58,58.28,0.00,0.00,
"CA001100031","2013-08-04",79.88,56.30,0.00,0.00,
"CA001100031","2013-08-05",82.40,55.04,0.00,0.00,
"CA001100031","2013-08-06",82.76,51.80,0.00,0.00,
"CA001100031","2013-08-07",81.86,53.42,0.00,0.00,
"CA001100031","2013-08-08",81.32,56.12,0.00,0.00,
"CA001100031","2013-08-09",85.46,53.78,0.00,0.00,
"CA001100031","2013-08-10",78.80,59.18,0.00,0.00,
"CA001100031","2013-08-11",74.12,58.28,18.00,0.00,
"CA001100031","2013-08-12",75.74,58.64,0.00,0.00,
"CA001100031","2013-08-13",78.98,56.12,0.00,0.00,
"CA001100031","2013-08-14",79.52,54.86,22.00,0.00,
"CA001100031","2013-08-15",69.62,63.50,6.00,0.00,
"CA001100031","2013-08-16",80.24,61.52,0.00,0.00,
"CA001100031","2013-08-17",75.38,60.80,0.00,0.00,
"CA001100031","2013-08-18",74.48,60.62,0.00,0.00,
"CA001100031","2013-08-19",71.42,56.30,0.00,0.00,
"CA001100031","2013-08-20",75.56,51.62,0.00,0.00,
"CA001100031","2013-08-21",82.22,48.56,0.00,0.00,
"CA001100031","2013-08-22",83.12,53.06,0.00,0.00,
"CA001100031","2013-08-23",74.84,58.28,0.00,0.00,
"CA001100031","2013-08-24",73.94,57.92,36.00,0.00,
"CA001100031","2013-08-25",77.18,50.90,2.00,0.00,
"CA001100031","2013-08-26",75.92,59.54,0.00,0.00,
"CA001100031","2013-08-27",75.74,60.08,23.00,0.00,
"CA001100031","2013-08-28",77.54,59.36,30.00,0.00,
"CA001100031","2013-08-30",72.86,58.64,72.00,0.00,
"CA001100031","2013-08-31",82.94,55.22,0.00,0.00,
"CA001100031","2013-09-01",80.24,53.78,0.00,0.00,
"CA001100031","2013-09-02",78.26,59.00,0.00,0.00,
"CA001100031","2013-09-03",70.70,57.74,101.00,0.00,
"CA001100031","2013-09-04",74.84,55.58,12.00,0.00,
"CA001100031","2013-09-05",67.82,55.94,22.00,0.00,
"CA001100031","2013-09-06",66.56,59.72,35.00,0.00,
"CA001100031","2013-09-07",74.66,60.62,26.00,0.00,
"CA001100031","2013-09-08",74.48,54.86,0.00,0.00,
"CA001100031","2013-09-10",83.66,52.34,0.00,0.00,
"CA001100031","2013-09-11",93.56,56.12,0.00,0.00,
"CA001100031","2013-09-12",82.22,57.74,0.00,0.00,
"CA001100031","2013-09-13",70.52,54.86,0.00,0.00,
"CA001100031","2013-09-16",65.48,57.74,90.00,0.00,
"CA001100031","2013-09-17",62.96,53.24,0.00,0.00,
"CA001100031","2013-09-18",66.74,50.00,0.00,0.00,
"CA001100031","2013-09-19",75.56,52.34,0.00,0.00,
"CA001100031","2013-09-20",74.84,50.54,4.00,0.00,
"CA001100031","2013-09-21",67.46,55.04,6.00,0.00,
"CA001100031","2013-09-23",59.72,48.02,50.00,0.00,
"CA001100031","2013-09-24",59.90,44.60,14.00,0.00,
"CA001100031","2013-09-25",64.58,45.32,0.00,0.00,
"CA001100031","2013-09-26",63.32,40.10,0.00,0.00,
"CA001100031","2013-09-27",51.80,47.30,136.00,0.00,
"CA001100031","2013-09-28",59.18,48.02,411.00,0.00,
"CA001100031","2013-09-29",55.40,49.82,268.00,0.00,
"CA001100031","2013-09-30",55.94,47.30,50.00,0.00,
"CA001100031","2013-10-01",56.30,44.96,138.00,0.00,
"CA001100031","2013-10-02",50.36,41.54,188.00,0.00,
"CA001100031","2013-10-04",59.72,35.24,0.00,0.00,
"CA001100031","2013-10-05",65.48,51.98,0.00,0.00,
"CA001100031","2013-10-06",73.58,45.32,0.00,0.00,
"CA001100031","2013-10-07",62.42,51.44,125.00,0.00,
"CA001100031","2013-10-09",56.66,37.76,0.00,0.00,
"CA001100031","2013-10-10",55.76,41.72,0.00,0.00,
"CA001100031","2013-10-11",54.32,34.88,0.00,0.00,
"CA001100031","2013-10-12",60.26,40.82,4.00,0.00,
"CA001100031","2013-10-13",60.08,33.80,0.00,0.00,
"CA001100031","2013-10-14",60.08,35.96,0.00,0.00,
"CA001100031","2013-10-15",59.36,37.04,0.00,0.00,
"CA001100031","2013-10-17",60.62,42.80,0.00,0.00,
"CA001100031","2013-10-18",60.62,39.92,0.00,0.00,
"CA001100031","2013-10-20",50.36,45.68,0.00,0.00,
"CA001100031","2013-10-21",56.12,43.16,0.00,0.00,
"CA001100031","2013-10-22",62.78,40.64,0.00,0.00,
"CA001100031","2013-10-23",68.18,34.52,0.00,0.00,
"CA001100031","2013-10-24",62.24,35.06,0.00,0.00,
"CA001100031","2013-10-25",51.98,44.06,0.00,0.00,
"CA001100031","2013-10-26",55.94,48.38,0.00,0.00,
"CA001100031","2013-10-27",59.18,45.86,80.00,0.00,
"CA001100031","2013-10-28",57.56,49.64,0.00,0.00,
"CA001100031","2013-10-30",53.24,36.86,4.00,0.00,
"CA001100031","2013-10-31",50.90,46.58,92.00,0.00,
"CA001100031","2013-11-01",53.42,48.20,14.00,0.00,
"CA001100031","2013-11-02",50.18,39.56,488.00,0.00,